FlightSource - Aviation Photo Database

World Wide Airport Lookup


Search by ICAO
Or
Search by City

FlightSource.ca - Aviation Photo Database - Shishmaref Airport Information
Airport Identification
Name: Shishmaref Airport
ICAO: PASH
IATA: SHH
Airport Location
City: Shishmaref
Region: AK
Country: United States
Continent: North America
Latitude: 66.2496
Longitude: -166.089
Airport Information
Type: Medium Airport
Elevation: 12 Feet ASL
Flight Status: PASH
More Info: PASH
Airport Weather    
Metar: PASH 132356Z AUTO 09013KT 10SM UP FEW055 OVC075 00/M01 A2941 RMK AO2 UPB44 SLP960 P0000 60000 T00001011 10000 21017 55005 FZRANO
TAF:


Advertisement